Time,TemperatureF,DewpointF,PressureIn,WindDirection,WindDirectionDegrees,WindSpeedMPH,WindSpeedGustMPH,Humidity,HourlyPrecipIn,Conditions,Clouds,dailyrainin,SoftwareType,DateUTC
2013-01-06 00:03:00,63.7,61.9,29.42,East,90,0.0,0.0,94,0.00,,,0.00,meteohub,2013-01-06 10:03:00,
2013-01-06 00:08:00,63.5,61.7,29.42,NE,45,0.0,0.0,94,0.00,,,0.00,meteohub,2013-01-06 10:08:00,
2013-01-06 00:14:00,63.5,62.1,29.42,NE,45,0.0,0.0,95,0.00,,,0.00,meteohub,2013-01-06 10:14:00,
2013-01-06 00:19:00,63.5,62.1,29.43,NE,45,2.0,0.0,95,0.00,,,0.00,meteohub,2013-01-06 10:19:00,
2013-01-06 00:24:00,63.5,62.1,29.43,NE,45,2.0,2.0,95,0.00,,,0.00,meteohub,2013-01-06 10:24:00,
2013-01-06 00:29:00,63.5,61.7,29.43,NE,45,1.0,2.0,94,0.00,,,0.00,meteohub,2013-01-06 10:29:00,
2013-01-06 00:34:00,63.3,61.5,29.43,NE,45,0.0,2.0,94,0.00,,,0.00,meteohub,2013-01-06 10:34:00,
2013-01-06 00:39:00,63.3,61.3,29.43,East,90,2.0,2.0,93,0.00,,,0.00,meteohub,2013-01-06 10:39:00,
2013-01-06 00:44:00,63.3,60.6,29.43,East,90,3.0,3.0,91,0.00,,,0.00,meteohub,2013-01-06 10:44:00,
2013-01-06 00:49:00,63.3,60.3,29.43,NE,45,0.0,3.0,90,0.00,,,0.00,meteohub,2013-01-06 10:49:00,
2013-01-06 00:54:00,63.1,59.5,29.42,NE,45,2.0,3.0,88,0.00,,,0.00,meteohub,2013-01-06 10:54:00,
2013-01-06 00:59:00,63.1,59.2,29.42,NE,45,2.0,3.0,87,0.00,,,0.00,meteohub,2013-01-06 10:59:00,
2013-01-06 01:04:00,63.1,59.2,29.42,NE,45,2.0,3.0,87,0.00,,,0.00,meteohub,2013-01-06 11:04:00,
2013-01-06 01:09:00,63.0,59.0,29.42,East,90,2.0,3.0,87,0.00,,,0.00,meteohub,2013-01-06 11:09:00,
2013-01-06 01:14:00,63.1,59.2,29.42,NE,45,2.0,3.0,87,0.00,,,0.00,meteohub,2013-01-06 11:14:00,
2013-01-06 01:19:00,63.1,59.5,29.41,NE,45,2.0,3.0,88,0.00,,,0.00,meteohub,2013-01-06 11:19:00,
2013-01-06 01:24:00,63.1,59.5,29.41,NE,45,2.0,3.0,88,0.00,,,0.00,meteohub,2013-01-06 11:24:00,
2013-01-06 01:29:00,63.0,59.4,29.41,ENE,68,2.0,3.0,88,0.00,,,0.00,meteohub,2013-01-06 11:29:00,
2013-01-06 01:34:00,62.8,59.5,29.41,NE,45,2.0,2.0,89,0.00,,,0.00,meteohub,2013-01-06 11:34:00,
2013-01-06 01:39:00,62.6,59.4,29.41,NE,45,1.0,2.0,89,0.00,,,0.00,meteohub,2013-01-06 11:39:00,
2013-01-06 01:44:00,62.4,59.4,29.41,NE,45,1.0,2.0,90,0.00,,,0.00,meteohub,2013-01-06 11:44:00,
2013-01-06 01:49:00,62.2,59.2,29.42,NE,45,3.0,3.0,90,0.00,,,0.00,meteohub,2013-01-06 11:49:00,
2013-01-06 01:54:00,62.4,59.4,29.41,NE,45,2.0,4.0,90,0.00,,,0.00,meteohub,2013-01-06 11:54:00,
2013-01-06 01:59:00,62.2,59.2,29.41,East,90,2.0,4.0,90,0.00,,,0.00,meteohub,2013-01-06 11:59:00,
2013-01-06 02:04:00,62.2,59.0,29.41,NE,45,2.0,4.0,89,0.00,,,0.00,meteohub,2013-01-06 12:04:00,
2013-01-06 02:09:00,62.1,59.2,29.41,East,90,0.0,3.0,90,0.00,,,0.00,meteohub,2013-01-06 12:09:00,
2013-01-06 02:14:00,61.9,59.0,29.41,East,90,0.0,2.0,90,0.00,,,0.00,meteohub,2013-01-06 12:14:00,
2013-01-06 02:19:00,61.5,58.8,29.41,East,90,1.0,2.0,91,0.00,,,0.00,meteohub,2013-01-06 12:19:00,
2013-01-06 02:24:00,61.3,58.6,29.41,NE,45,2.0,2.0,91,0.00,,,0.00,meteohub,2013-01-06 12:24:00,
2013-01-06 02:29:00,61.7,59.7,29.41,NE,45,2.0,2.0,93,0.00,,,0.00,meteohub,2013-01-06 12:29:00,
2013-01-06 02:34:00,61.7,59.7,29.41,NE,45,2.0,5.0,93,0.00,,,0.00,meteohub,2013-01-06 12:34:00,
2013-01-06 02:39:00,61.9,59.9,29.41,NE,45,0.0,5.0,93,0.00,,,0.00,meteohub,2013-01-06 12:39:00,
2013-01-06 02:44:00,62.1,59.7,29.41,East,90,2.0,5.0,92,0.00,,,0.00,meteohub,2013-01-06 12:44:00,
2013-01-06 02:49:00,62.4,59.7,29.41,East,90,2.0,2.0,91,0.00,,,0.00,meteohub,2013-01-06 12:49:00,
2013-01-06 02:54:00,63.0,59.9,29.41,NE,45,2.0,2.0,90,0.00,,,0.00,meteohub,2013-01-06 12:54:00,
2013-01-06 02:59:00,63.3,59.7,29.41,North,0,1.0,4.0,88,0.00,,,0.00,meteohub,2013-01-06 12:59:00,
2013-01-06 03:04:00,63.5,59.9,29.41,East,90,2.0,4.0,88,0.00,,,0.00,meteohub,2013-01-06 13:04:00,
2013-01-06 03:09:00,64.0,59.7,29.41,NE,45,0.0,4.0,86,0.00,,,0.00,meteohub,2013-01-06 13:09:00,
2013-01-06 03:14:00,64.2,59.9,29.40,NE,45,1.0,5.0,86,0.00,,,0.00,meteohub,2013-01-06 13:14:00,
2013-01-06 03:19:00,64.4,59.7,29.41,NE,45,2.0,5.0,85,0.00,,,0.00,meteohub,2013-01-06 13:19:00,
2013-01-06 03:24:00,64.6,59.9,29.41,NE,45,2.0,5.0,85,0.00,,,0.00,meteohub,2013-01-06 13:24:00,
2013-01-06 03:29:00,64.8,59.9,29.41,NE,45,0.0,4.0,84,0.00,,,0.00,meteohub,2013-01-06 13:29:00,
2013-01-06 03:34:00,64.8,59.9,29.41,NE,45,0.0,3.0,84,0.00,,,0.00,meteohub,2013-01-06 13:34:00,
2013-01-06 03:39:00,64.8,60.1,29.41,NE,45,0.0,2.0,85,0.00,,,0.00,meteohub,2013-01-06 13:39:00,
2013-01-06 03:44:00,64.8,60.1,29.40,NE,45,0.0,2.0,85,0.00,,,0.00,meteohub,2013-01-06 13:44:00,
2013-01-06 03:49:00,64.6,59.9,29.40,NE,45,0.0,0.0,85,0.00,,,0.00,meteohub,2013-01-06 13:49:00,
2013-01-06 03:54:00,64.2,59.9,29.40,NE,45,0.0,0.0,86,0.00,,,0.00,meteohub,2013-01-06 13:54:00,
2013-01-06 04:00:00,63.9,59.9,29.41,NE,45,0.0,0.0,87,0.00,,,0.00,meteohub,2013-01-06 14:00:00,
2013-01-06 04:05:00,63.5,59.9,29.41,East,90,1.0,0.0,88,0.00,,,0.00,meteohub,2013-01-06 14:05:00,
2013-01-06 04:10:00,63.3,59.7,29.41,NE,45,0.0,2.0,88,0.00,,,0.00,meteohub,2013-01-06 14:10:00,
2013-01-06 04:15:00,63.3,60.1,29.41,NE,45,2.0,2.0,89,0.00,,,0.00,meteohub,2013-01-06 14:15:00,
2013-01-06 04:20:00,63.3,60.1,29.41,NE,45,0.0,3.0,89,0.00,,,0.00,meteohub,2013-01-06 14:20:00,
2013-01-06 04:25:00,63.3,59.7,29.41,NE,45,2.0,3.0,88,0.00,,,0.00,meteohub,2013-01-06 14:25:00,
2013-01-06 04:30:00,63.1,59.5,29.41,NE,45,2.0,3.0,88,0.00,,,0.00,meteohub,2013-01-06 14:30:00,
2013-01-06 04:35:00,63.1,59.5,29.41,NE,45,2.0,3.0,88,0.00,,,0.00,meteohub,2013-01-06 14:35:00,
2013-01-06 04:40:00,63.3,59.7,29.41,NE,45,2.0,3.0,88,0.00,,,0.00,meteohub,2013-01-06 14:40:00,
2013-01-06 04:45:00,63.3,59.7,29.41,NE,45,2.0,3.0,88,0.00,,,0.00,meteohub,2013-01-06 14:45:00,
2013-01-06 04:50:00,63.3,59.4,29.41,NE,45,2.0,3.0,87,0.00,,,0.00,meteohub,2013-01-06 14:50:00,
2013-01-06 04:55:00,63.3,59.0,29.41,NE,45,2.0,3.0,86,0.00,,,0.00,meteohub,2013-01-06 14:55:00,
2013-01-06 05:00:00,63.3,58.8,29.41,NE,45,2.0,3.0,85,0.00,,,0.00,meteohub,2013-01-06 15:00:00,
2013-01-06 05:05:00,63.3,58.8,29.41,NE,45,0.0,3.0,85,0.00,,,0.00,meteohub,2013-01-06 15:05:00,
2013-01-06 05:10:00,63.1,58.6,29.42,NE,45,2.0,3.0,85,0.00,,,0.00,meteohub,2013-01-06 15:10:00,
2013-01-06 05:15:00,63.0,58.5,29.42,NE,45,2.0,2.0,85,0.00,,,0.00,meteohub,2013-01-06 15:15:00,
2013-01-06 05:20:00,62.8,58.5,29.42,NE,45,0.0,2.0,86,0.00,,,0.00,meteohub,2013-01-06 15:20:00,
2013-01-06 05:25:00,62.4,58.1,29.42,NE,45,2.0,2.0,86,0.00,,,0.00,meteohub,2013-01-06 15:25:00,
2013-01-06 05:30:00,62.2,57.9,29.41,NE,45,3.0,3.0,86,0.00,,,0.00,meteohub,2013-01-06 15:30:00,
2013-01-06 05:35:00,62.2,57.9,29.41,NE,45,0.0,3.0,86,0.00,,,0.00,meteohub,2013-01-06 15:35:00,
2013-01-06 05:40:00,62.1,57.7,29.42,NE,45,0.0,3.0,86,0.00,,,0.00,meteohub,2013-01-06 15:40:00,
2013-01-06 05:45:00,61.9,57.9,29.42,NE,45,0.0,3.0,87,0.00,,,0.00,meteohub,2013-01-06 15:45:00,
2013-01-06 05:50:00,61.9,57.9,29.42,NE,45,2.0,3.0,87,0.00,,,0.00,meteohub,2013-01-06 15:50:00,
2013-01-06 05:55:00,62.1,57.7,29.41,East,90,4.0,5.0,86,0.00,,,0.00,meteohub,2013-01-06 15:55:00,
2013-01-06 06:00:00,62.2,57.7,29.42,NE,45,2.0,5.0,85,0.00,,,0.00,meteohub,2013-01-06 16:00:00,
2013-01-06 06:05:00,62.1,57.6,29.42,East,90,3.0,5.0,85,0.00,,,0.00,meteohub,2013-01-06 16:05:00,
2013-01-06 06:10:00,62.4,57.2,29.42,East,90,3.0,7.0,83,0.00,,,0.00,meteohub,2013-01-06 16:10:00,
2013-01-06 06:15:00,62.4,57.2,29.42,NE,45,3.0,7.0,83,0.00,,,0.00,meteohub,2013-01-06 16:15:00,
2013-01-06 06:20:00,62.4,56.8,29.42,NE,45,3.0,7.0,82,0.00,,,0.00,meteohub,2013-01-06 16:20:00,
2013-01-06 06:25:00,62.2,57.0,29.41,NE,45,2.0,6.0,83,0.00,,,0.00,meteohub,2013-01-06 16:25:00,
2013-01-06 06:30:00,62.1,56.8,29.42,East,90,3.0,4.0,83,0.00,,,0.00,meteohub,2013-01-06 16:30:00,
2013-01-06 06:35:00,62.1,57.2,29.42,North,0,2.0,3.0,84,0.00,,,0.00,meteohub,2013-01-06 16:35:00,
2013-01-06 06:40:00,61.9,57.4,29.42,NE,45,0.0,3.0,85,0.00,,,0.00,meteohub,2013-01-06 16:40:00,
2013-01-06 06:45:00,61.5,57.0,29.42,NE,45,0.0,3.0,85,0.00,,,0.00,meteohub,2013-01-06 16:45:00,
2013-01-06 06:50:00,61.3,56.8,29.42,NE,45,0.0,2.0,85,0.00,,,0.00,meteohub,2013-01-06 16:50:00,
2013-01-06 06:55:00,61.3,56.8,29.42,NE,45,0.0,0.0,85,0.00,,,0.00,meteohub,2013-01-06 16:55:00,
2013-01-06 07:00:00,60.8,56.7,29.42,NE,45,0.0,0.0,86,0.00,,,0.00,meteohub,2013-01-06 17:00:00,
2013-01-06 07:05:00,60.6,56.5,29.42,WNW,293,0.0,0.0,86,0.00,,,0.00,meteohub,2013-01-06 17:05:00,
2013-01-06 07:10:00,60.4,56.3,29.43,NE,45,2.0,0.0,86,0.00,,,0.00,meteohub,2013-01-06 17:10:00,
2013-01-06 07:15:00,60.6,56.1,29.43,NE,45,2.0,2.0,85,0.00,,,0.00,meteohub,2013-01-06 17:15:00,
2013-01-06 07:20:00,60.6,56.1,29.44,NE,45,2.0,2.0,85,0.00,,,0.00,meteohub,2013-01-06 17:20:00,
2013-01-06 07:25:00,60.6,55.8,29.44,NE,45,3.0,3.0,84,0.00,,,0.00,meteohub,2013-01-06 17:25:00,
2013-01-06 07:30:00,61.0,55.4,29.44,East,90,4.0,4.0,82,0.00,,,0.00,meteohub,2013-01-06 17:30:00,
2013-01-06 07:35:00,61.5,55.2,29.44,NE,45,2.0,4.0,80,0.00,,,0.00,meteohub,2013-01-06 17:35:00,
2013-01-06 07:40:00,62.1,55.4,29.44,NE,45,2.0,4.0,79,0.00,,,0.00,meteohub,2013-01-06 17:40:00,
2013-01-06 07:45:00,62.6,55.6,29.44,East,90,2.0,4.0,78,0.00,,,0.00,meteohub,2013-01-06 17:45:00,
2013-01-06 07:50:00,62.8,55.8,29.44,NE,45,0.0,3.0,78,0.00,,,0.00,meteohub,2013-01-06 17:50:00,
2013-01-06 07:55:00,62.8,56.1,29.44,NE,45,1.0,3.0,79,0.00,,,0.00,meteohub,2013-01-06 17:55:00,
2013-01-06 08:00:00,63.5,56.8,29.44,NE,45,0.0,2.0,79,0.00,,,0.00,meteohub,2013-01-06 18:00:00,
2013-01-06 08:06:00,64.0,57.4,29.44,NE,45,0.0,2.0,79,0.00,,,0.00,meteohub,2013-01-06 18:06:00,
2013-01-06 08:11:00,64.2,57.6,29.44,NE,45,0.0,2.0,79,0.00,,,0.00,meteohub,2013-01-06 18:11:00,
2013-01-06 08:16:00,64.9,58.6,29.44,NE,45,0.0,1.0,80,0.00,,,0.00,meteohub,2013-01-06 18:16:00,
2013-01-06 08:21:00,67.3,61.0,29.45,NE,45,0.0,0.0,80,0.00,,,0.00,meteohub,2013-01-06 18:21:00,
2013-01-06 08:26:00,69.1,61.5,29.45,NE,45,0.0,0.0,77,0.00,,,0.00,meteohub,2013-01-06 18:26:00,
2013-01-06 08:31:00,71.1,62.8,29.45,NE,45,0.0,1.0,75,0.00,,,0.00,meteohub,2013-01-06 18:31:00,
2013-01-06 08:36:00,72.9,63.3,29.46,East,90,2.0,2.0,72,0.00,,,0.00,meteohub,2013-01-06 18:36:00,
2013-01-06 08:41:00,73.6,63.7,29.46,East,90,1.0,3.0,71,0.00,,,0.00,meteohub,2013-01-06 18:41:00,
2013-01-06 08:46:00,74.8,64.4,29.46,SE,135,2.0,3.0,70,0.00,,,0.00,meteohub,2013-01-06 18:46:00,
2013-01-06 08:51:00,75.9,65.5,29.46,SE,135,2.0,3.0,70,0.00,,,0.00,meteohub,2013-01-06 18:51:00,
2013-01-06 08:56:00,76.5,65.1,29.46,SE,135,2.0,3.0,68,0.00,,,0.00,meteohub,2013-01-06 18:56:00,
2013-01-06 09:01:00,77.0,65.7,29.46,SE,135,1.0,3.0,68,0.00,,,0.00,meteohub,2013-01-06 19:01:00,
2013-01-06 09:06:00,76.5,66.0,29.46,South,180,3.0,4.0,70,0.00,,,0.00,meteohub,2013-01-06 19:06:00,
2013-01-06 09:11:00,76.5,66.0,29.46,SE,135,1.0,4.0,70,0.00,,,0.00,meteohub,2013-01-06 19:11:00,
2013-01-06 09:16:00,77.0,66.0,29.46,SE,135,4.0,4.0,69,0.00,,,0.00,meteohub,2013-01-06 19:16:00,
2013-01-06 09:21:00,76.6,66.2,29.46,SE,135,6.0,6.0,70,0.00,,,0.00,meteohub,2013-01-06 19:21:00,
2013-01-06 09:26:00,76.3,66.2,29.47,SE,135,4.0,6.0,71,0.00,,,0.00,meteohub,2013-01-06 19:26:00,
2013-01-06 09:31:00,77.2,67.1,29.47,South,180,3.0,6.0,71,0.00,,,0.00,meteohub,2013-01-06 19:31:00,
2013-01-06 09:36:00,77.9,66.6,29.46,East,90,1.0,6.0,68,0.00,,,0.00,meteohub,2013-01-06 19:36:00,
2013-01-06 09:46:00,78.8,67.3,29.46,North,0,2.0,5.0,68,0.00,,,0.00,meteohub,2013-01-06 19:46:00,
2013-01-06 09:51:00,77.9,66.6,29.46,NW,315,0.0,5.0,68,0.00,,,0.00,meteohub,2013-01-06 19:51:00,
2013-01-06 09:56:00,77.4,66.0,29.45,West,270,1.0,5.0,68,0.00,,,0.00,meteohub,2013-01-06 19:56:00,
2013-01-06 10:01:00,76.3,66.6,29.45,West,270,3.0,5.0,72,0.00,,,0.00,meteohub,2013-01-06 20:01:00,
2013-01-06 10:06:00,75.0,65.8,29.44,West,270,4.0,5.0,73,0.00,,,0.00,meteohub,2013-01-06 20:06:00,
2013-01-06 10:11:00,74.7,66.2,29.44,West,270,0.0,5.0,75,0.00,,,0.00,meteohub,2013-01-06 20:11:00,
2013-01-06 10:13:00,74.3,65.8,29.44,West,270,2.0,5.0,75,0.00,,,0.00,meteohub,2013-01-06 20:13:00,
2013-01-06 10:18:00,74.8,66.4,29.44,North,0,2.0,5.0,75,0.00,,,0.00,meteohub,2013-01-06 20:18:00,
2013-01-06 10:23:00,75.6,66.4,29.44,West,270,0.0,4.0,73,0.00,,,0.00,meteohub,2013-01-06 20:23:00,
2013-01-06 10:28:00,76.6,66.6,29.44,West,270,4.0,4.0,71,0.00,,,0.00,meteohub,2013-01-06 20:28:00,
2013-01-06 10:33:00,77.4,66.7,29.43,SW,225,5.0,5.0,70,0.00,,,0.00,meteohub,2013-01-06 20:33:00,
2013-01-06 10:38:00,77.7,66.7,29.43,NW,315,1.0,4.0,69,0.00,,,0.00,meteohub,2013-01-06 20:38:00,
2013-01-06 10:43:00,79.0,68.4,29.42,West,270,2.0,5.0,70,0.00,,,0.00,meteohub,2013-01-06 20:43:00,
2013-01-06 10:48:00,78.3,67.3,29.42,NW,315,3.0,5.0,69,0.00,,,0.00,meteohub,2013-01-06 20:48:00,
2013-01-06 10:53:00,77.4,66.7,29.42,West,270,0.0,5.0,70,0.00,,,0.00,meteohub,2013-01-06 20:53:00,
2013-01-06 10:58:00,76.3,66.9,29.42,West,270,2.0,5.0,73,0.00,,,0.00,meteohub,2013-01-06 20:58:00,
2013-01-06 11:00:00,76.1,66.7,29.42,West,270,2.0,5.0,73,0.00,,,0.00,meteohub,2013-01-06 21:00:00,
2013-01-06 11:05:00,76.3,67.5,29.41,North,0,2.0,2.0,74,0.00,,,0.00,meteohub,2013-01-06 21:05:00,
2013-01-06 11:10:00,78.6,68.4,29.40,SW,225,4.0,4.0,71,0.00,,,0.00,meteohub,2013-01-06 21:10:00,
2013-01-06 11:15:00,78.3,67.3,29.41,SW,225,4.0,4.0,69,0.00,,,0.00,meteohub,2013-01-06 21:15:00,
2013-01-06 11:20:00,77.9,67.3,29.41,West,270,2.0,4.0,70,0.00,,,0.00,meteohub,2013-01-06 21:20:00,
2013-01-06 11:25:00,76.8,67.1,29.40,West,270,4.0,4.0,72,0.00,,,0.00,meteohub,2013-01-06 21:25:00,
2013-01-06 11:30:00,76.3,66.9,29.39,SW,225,2.0,4.0,73,0.00,,,0.00,meteohub,2013-01-06 21:30:00,
2013-01-06 11:35:00,78.3,68.0,29.39,North,0,3.0,4.0,71,0.00,,,0.00,meteohub,2013-01-06 21:35:00,
2013-01-06 11:40:00,79.5,67.6,29.39,SW,225,5.0,8.0,67,0.00,,,0.00,meteohub,2013-01-06 21:40:00,
2013-01-06 11:45:00,78.6,66.7,29.39,West,270,6.0,8.0,67,0.00,,,0.00,meteohub,2013-01-06 21:45:00,
2013-01-06 11:50:00,78.3,66.7,29.39,SW,225,2.0,8.0,68,0.00,,,0.00,meteohub,2013-01-06 21:50:00,
2013-01-06 11:55:00,78.4,67.8,29.39,SW,225,3.0,6.0,70,0.00,,,0.00,meteohub,2013-01-06 21:55:00,
2013-01-06 12:01:00,77.5,66.9,29.39,SW,225,2.0,6.0,70,0.00,,,0.00,meteohub,2013-01-06 22:01:00,
2013-01-06 12:06:00,76.8,67.1,29.39,West,270,2.0,4.0,72,0.00,,,0.00,meteohub,2013-01-06 22:06:00,
2013-01-06 12:11:00,75.4,65.7,29.39,West,270,3.0,4.0,72,0.00,,,0.00,meteohub,2013-01-06 22:11:00,
2013-01-06 12:16:00,74.3,65.5,29.39,SW,225,2.0,5.0,74,0.00,,,0.00,meteohub,2013-01-06 22:16:00,
2013-01-06 12:21:00,75.7,66.9,29.39,SW,225,2.0,5.0,74,0.00,,,0.00,meteohub,2013-01-06 22:21:00,
2013-01-06 12:26:00,75.9,66.6,29.38,West,270,5.0,5.0,73,0.00,,,0.00,meteohub,2013-01-06 22:26:00,
2013-01-06 12:31:00,77.0,67.3,29.37,West,270,2.0,7.0,72,0.00,,,0.00,meteohub,2013-01-06 22:31:00,
2013-01-06 12:36:00,77.0,66.9,29.37,NW,315,0.0,7.0,71,0.00,,,0.00,meteohub,2013-01-06 22:36:00,
2013-01-06 12:41:00,75.9,66.2,29.37,West,270,4.0,7.0,72,0.00,,,0.00,meteohub,2013-01-06 22:41:00,
2013-01-06 12:46:00,74.8,66.0,29.36,South,180,3.0,7.0,74,0.00,,,0.00,meteohub,2013-01-06 22:46:00,
2013-01-06 12:51:00,74.3,66.2,29.36,West,270,2.0,5.0,76,0.00,,,0.00,meteohub,2013-01-06 22:51:00,
2013-01-06 12:56:00,75.0,66.6,29.36,West,270,4.0,5.0,75,0.00,,,0.00,meteohub,2013-01-06 22:56:00,
2013-01-06 13:01:00,75.2,66.4,29.36,South,180,4.0,5.0,74,0.00,,,0.00,meteohub,2013-01-06 23:01:00,
2013-01-06 13:06:00,75.2,66.4,29.35,South,180,4.0,7.0,74,0.00,,,0.00,meteohub,2013-01-06 23:06:00,
2013-01-06 13:11:00,74.1,66.0,29.35,NW,315,4.0,7.0,76,0.00,,,0.00,meteohub,2013-01-06 23:11:00,
2013-01-06 13:16:00,73.8,66.4,29.34,NW,315,4.0,7.0,78,0.00,,,0.00,meteohub,2013-01-06 23:16:00,
2013-01-06 13:21:00,75.2,67.1,29.34,West,270,6.0,6.0,76,0.00,,,0.00,meteohub,2013-01-06 23:21:00,
2013-01-06 13:26:00,76.3,67.5,29.33,NW,315,7.0,7.0,74,0.00,,,0.00,meteohub,2013-01-06 23:26:00,
2013-01-06 13:31:00,76.3,66.9,29.33,West,270,4.0,9.0,73,0.00,,,0.00,meteohub,2013-01-06 23:31:00,
2013-01-06 13:36:00,76.6,67.3,29.33,NW,315,5.0,9.0,73,0.00,,,0.00,meteohub,2013-01-06 23:36:00,
2013-01-06 13:41:00,77.4,68.0,29.33,West,270,3.0,9.0,73,0.00,,,0.00,meteohub,2013-01-06 23:41:00,
2013-01-06 13:46:00,77.7,68.0,29.32,West,270,4.0,8.0,72,0.00,,,0.00,meteohub,2013-01-06 23:46:00,
2013-01-06 13:51:00,76.3,66.6,29.32,NW,315,3.0,8.0,72,0.00,,,0.00,meteohub,2013-01-06 23:51:00,
2013-01-06 13:56:00,76.5,67.6,29.32,NW,315,4.0,9.0,74,0.00,,,0.00,meteohub,2013-01-06 23:56:00,
2013-01-06 14:01:00,77.0,67.6,29.31,NW,315,4.0,9.0,73,0.00,,,0.00,meteohub,2013-01-07 00:01:00,
2013-01-06 14:06:00,76.8,66.7,29.31,NW,315,3.0,9.0,71,0.00,,,0.00,meteohub,2013-01-07 00:06:00,
2013-01-06 14:11:00,75.9,66.6,29.32,North,0,2.0,6.0,73,0.00,,,0.00,meteohub,2013-01-07 00:11:00,
2013-01-06 14:16:00,75.6,66.7,29.31,West,270,4.0,8.0,74,0.00,,,0.00,meteohub,2013-01-07 00:16:00,
2013-01-06 14:21:00,75.0,66.2,29.31,West,270,8.0,8.0,74,0.00,,,0.00,meteohub,2013-01-07 00:21:00,
2013-01-06 14:26:00,74.5,66.0,29.31,West,270,5.0,8.0,75,0.00,,,0.00,meteohub,2013-01-07 00:26:00,
2013-01-06 14:31:00,74.1,66.0,29.31,NE,45,3.0,8.0,76,0.00,,,0.00,meteohub,2013-01-07 00:31:00,
2013-01-06 14:36:00,73.9,65.8,29.32,West,270,4.0,8.0,76,0.00,,,0.00,meteohub,2013-01-07 00:36:00,
2013-01-06 14:41:00,73.4,65.7,29.32,NW,315,2.0,5.0,77,0.00,,,0.00,meteohub,2013-01-07 00:41:00,
2013-01-06 14:46:00,73.2,66.0,29.32,NW,315,3.0,5.0,78,0.00,,,0.00,meteohub,2013-01-07 00:46:00,
2013-01-06 14:51:00,72.9,66.0,29.32,SW,225,6.0,6.0,79,0.00,,,0.00,meteohub,2013-01-07 00:51:00,
2013-01-06 14:56:00,72.9,66.0,29.32,West,270,4.0,6.0,79,0.00,,,0.00,meteohub,2013-01-07 00:56:00,
2013-01-06 15:01:00,72.9,66.0,29.32,West,270,4.0,6.0,79,0.00,,,0.00,meteohub,2013-01-07 01:01:00,
2013-01-06 15:06:00,72.7,65.8,29.32,West,270,3.0,6.0,79,0.00,,,0.00,meteohub,2013-01-07 01:06:00,
2013-01-06 15:11:00,72.9,66.0,29.32,NW,315,1.0,6.0,79,0.00,,,0.00,meteohub,2013-01-07 01:11:00,
2013-01-06 15:16:00,72.9,66.0,29.32,SW,225,3.0,6.0,79,0.00,,,0.00,meteohub,2013-01-07 01:16:00,
2013-01-06 15:21:00,72.5,65.7,29.31,NW,315,2.0,4.0,79,0.00,,,0.00,meteohub,2013-01-07 01:21:00,
2013-01-06 15:26:00,72.9,66.0,29.31,SW,225,2.0,4.0,79,0.00,,,0.00,meteohub,2013-01-07 01:26:00,
2013-01-06 15:32:00,73.2,66.0,29.31,West,270,2.0,4.0,78,0.00,,,0.00,meteohub,2013-01-07 01:32:00,
2013-01-06 15:37:00,72.9,66.0,29.31,NW,315,2.0,3.0,79,0.00,,,0.00,meteohub,2013-01-07 01:37:00,
2013-01-06 15:42:00,73.6,66.7,29.31,West,270,2.0,4.0,79,0.00,,,0.00,meteohub,2013-01-07 01:42:00,
2013-01-06 15:47:00,74.1,66.7,29.30,West,270,2.0,4.0,78,0.00,,,0.00,meteohub,2013-01-07 01:47:00,
2013-01-06 15:52:00,74.7,66.9,29.31,NW,315,0.0,4.0,77,0.00,,,0.00,meteohub,2013-01-07 01:52:00,
2013-01-06 15:57:00,74.3,66.6,29.31,West,270,4.0,4.0,77,0.00,,,0.00,meteohub,2013-01-07 01:57:00,
2013-01-06 16:02:00,73.8,66.4,29.31,North,0,2.0,4.0,78,0.00,,,0.00,meteohub,2013-01-07 02:02:00,
2013-01-06 16:07:00,73.8,66.9,29.31,NW,315,4.0,4.0,79,0.00,,,0.00,meteohub,2013-01-07 02:07:00,
2013-01-06 16:12:00,75.0,67.3,29.31,North,0,3.0,5.0,77,0.00,,,0.00,meteohub,2013-01-07 02:12:00,
2013-01-06 16:17:00,75.7,67.3,29.30,SW,225,4.0,5.0,75,0.00,,,0.00,meteohub,2013-01-07 02:17:00,
2013-01-06 16:22:00,75.6,67.1,29.31,NW,315,0.0,5.0,75,0.00,,,0.00,meteohub,2013-01-07 02:22:00,
2013-01-06 16:27:00,74.3,66.2,29.31,NW,315,0.0,4.0,76,0.00,,,0.00,meteohub,2013-01-07 02:27:00,
2013-01-06 16:32:00,73.6,66.4,29.31,West,270,0.0,4.0,78,0.00,,,0.00,meteohub,2013-01-07 02:32:00,
2013-01-06 16:37:00,73.8,66.4,29.31,West,270,0.0,2.0,78,0.00,,,0.00,meteohub,2013-01-07 02:37:00,
2013-01-06 16:42:00,73.9,66.6,29.31,NW,315,3.0,4.0,78,0.00,,,0.00,meteohub,2013-01-07 02:42:00,
2013-01-06 16:47:00,73.9,66.6,29.31,West,270,4.0,4.0,78,0.00,,,0.00,meteohub,2013-01-07 02:47:00,
2013-01-06 16:52:00,74.1,66.7,29.31,SW,225,4.0,5.0,78,0.00,,,0.00,meteohub,2013-01-07 02:52:00,
2013-01-06 16:57:00,73.9,66.6,29.31,West,270,3.0,5.0,78,0.00,,,0.00,meteohub,2013-01-07 02:57:00,
2013-01-06 17:02:00,73.8,66.4,29.31,NW,315,0.0,5.0,78,0.00,,,0.00,meteohub,2013-01-07 03:02:00,
2013-01-06 17:07:00,73.6,66.4,29.31,West,270,0.0,4.0,78,0.00,,,0.00,meteohub,2013-01-07 03:07:00,
2013-01-06 17:12:00,73.4,66.6,29.32,West,270,0.0,4.0,79,0.00,,,0.00,meteohub,2013-01-07 03:12:00,
2013-01-06 17:17:00,73.0,66.2,29.31,NW,315,2.0,3.0,79,0.00,,,0.00,meteohub,2013-01-07 03:17:00,
2013-01-06 17:22:00,73.4,66.9,29.31,SW,225,0.0,3.0,80,0.00,,,0.00,meteohub,2013-01-07 03:22:00,
2013-01-06 17:27:00,73.2,66.4,29.31,West,270,0.0,4.0,79,0.00,,,0.00,meteohub,2013-01-07 03:27:00,
2013-01-06 17:32:00,72.9,66.0,29.31,West,270,0.0,4.0,79,0.00,,,0.00,meteohub,2013-01-07 03:32:00,
2013-01-06 17:37:00,72.3,65.8,29.31,West,270,0.0,4.0,80,0.00,,,0.00,meteohub,2013-01-07 03:37:00,
2013-01-06 17:42:00,71.8,65.7,29.31,NW,315,0.0,3.0,81,0.00,,,0.00,meteohub,2013-01-07 03:42:00,
2013-01-06 17:47:00,71.8,65.7,29.32,West,270,0.0,0.0,81,0.00,,,0.00,meteohub,2013-01-07 03:47:00,
2013-01-06 17:52:00,71.1,65.3,29.31,West,270,0.0,0.0,82,0.00,,,0.00,meteohub,2013-01-07 03:52:00,
2013-01-06 17:57:00,70.5,65.1,29.31,West,270,0.0,0.0,83,0.00,,,0.00,meteohub,2013-01-07 03:57:00,
2013-01-06 18:02:00,70.0,64.6,29.31,NW,315,0.0,0.0,83,0.00,,,0.00,meteohub,2013-01-07 04:02:00,
2013-01-06 18:07:00,69.4,64.8,29.32,West,270,0.0,0.0,85,0.00,,,0.00,meteohub,2013-01-07 04:07:00,
2013-01-06 18:12:00,69.1,64.4,29.32,NW,315,0.0,0.0,85,0.00,,,0.00,meteohub,2013-01-07 04:12:00,
2013-01-06 18:17:00,68.7,64.4,29.32,NW,315,0.0,0.0,86,0.00,,,0.00,meteohub,2013-01-07 04:17:00,
2013-01-06 18:22:00,68.4,64.0,29.32,North,0,0.0,0.0,86,0.00,,,0.00,meteohub,2013-01-07 04:22:00,
2013-01-06 18:27:00,68.0,64.4,29.32,North,0,0.0,0.0,88,0.00,,,0.00,meteohub,2013-01-07 04:27:00,
2013-01-06 18:32:00,67.6,64.0,29.32,North,0,0.0,0.0,88,0.00,,,0.00,meteohub,2013-01-07 04:32:00,
2013-01-06 18:37:00,67.3,64.2,29.32,North,0,0.0,0.0,90,0.00,,,0.00,meteohub,2013-01-07 04:37:00,
2013-01-06 18:42:00,67.1,64.0,29.33,North,0,0.0,0.0,90,0.00,,,0.00,meteohub,2013-01-07 04:42:00,
2013-01-06 18:47:00,66.9,64.2,29.32,North,0,0.0,0.0,91,0.00,,,0.00,meteohub,2013-01-07 04:47:00,
2013-01-06 18:52:00,66.7,64.4,29.33,North,0,0.0,0.0,92,0.00,,,0.00,meteohub,2013-01-07 04:52:00,
2013-01-06 18:57:00,66.7,64.4,29.32,North,0,0.0,0.0,92,0.00,,,0.00,meteohub,2013-01-07 04:57:00,
2013-01-06 19:00:00,66.7,64.6,29.33,North,0,0.0,0.0,93,0.00,,,0.00,meteohub,2013-01-07 05:00:00,
2013-01-06 19:01:00,66.7,64.6,29.33,North,0,0.0,0.0,93,0.00,,,0.00,meteohub,2013-01-07 05:01:00,
2013-01-06 19:06:00,66.6,64.4,29.33,North,0,0.0,0.0,93,0.00,,,0.00,meteohub,2013-01-07 05:06:00,
2013-01-06 19:11:00,66.6,64.8,29.33,North,0,0.0,0.0,94,0.00,,,0.00,meteohub,2013-01-07 05:11:00,
2013-01-06 19:16:00,66.6,64.8,29.34,North,0,0.0,0.0,94,0.00,,,0.00,meteohub,2013-01-07 05:16:00,
2013-01-06 19:21:00,66.6,65.1,29.34,North,0,0.0,0.0,95,0.00,,,0.00,meteohub,2013-01-07 05:21:00,
2013-01-06 19:26:00,66.7,65.5,29.34,North,0,0.0,0.0,96,0.00,,,0.00,meteohub,2013-01-07 05:26:00,
2013-01-06 19:31:00,66.9,65.7,29.34,North,0,0.0,0.0,96,0.00,,,0.00,meteohub,2013-01-07 05:31:00,
2013-01-06 19:36:00,66.9,66.0,29.35,East,90,0.0,0.0,97,0.00,,,0.00,meteohub,2013-01-07 05:36:00,
2013-01-06 19:41:00,66.9,66.0,29.35,East,90,0.0,0.0,97,0.00,,,0.00,meteohub,2013-01-07 05:41:00,
2013-01-06 19:46:00,66.9,66.0,29.35,East,90,0.0,0.0,97,0.00,,,0.00,meteohub,2013-01-07 05:46:00,
2013-01-06 19:51:00,66.9,66.0,29.35,East,90,0.0,0.0,97,0.00,,,0.00,meteohub,2013-01-07 05:51:00,
2013-01-06 19:56:00,66.9,66.0,29.34,NE,45,0.0,0.0,97,0.00,,,0.00,meteohub,2013-01-07 05:56:00,
2013-01-06 20:01:00,66.9,66.0,29.34,East,90,0.0,0.0,97,0.00,,,0.00,meteohub,2013-01-07 06:01:00,
2013-01-06 20:06:00,66.7,65.8,29.35,NE,45,0.0,0.0,97,0.00,,,0.00,meteohub,2013-01-07 06:06:00,
2013-01-06 20:11:00,66.6,65.7,29.35,NE,45,0.0,0.0,97,0.00,,,0.00,meteohub,2013-01-07 06:11:00,
2013-01-06 20:16:00,66.4,65.8,29.35,NE,45,0.0,0.0,98,0.00,,,0.00,meteohub,2013-01-07 06:16:00,
2013-01-06 20:21:00,66.4,65.8,29.34,NE,45,0.0,0.0,98,0.00,,,0.00,meteohub,2013-01-07 06:21:00,
2013-01-06 20:26:00,66.0,65.5,29.35,NE,45,0.0,0.0,98,0.00,,,0.00,meteohub,2013-01-07 06:26:00,
2013-01-06 20:31:00,65.7,65.1,29.35,NE,45,0.0,0.0,98,0.00,,,0.00,meteohub,2013-01-07 06:31:00,
2013-01-06 20:36:00,65.3,64.9,29.35,NE,45,0.0,0.0,99,0.00,,,0.00,meteohub,2013-01-07 06:36:00,
2013-01-06 20:41:00,65.1,64.8,29.35,NE,45,0.0,0.0,99,0.00,,,0.00,meteohub,2013-01-07 06:41:00,
2013-01-06 20:46:00,64.8,64.4,29.35,NE,45,0.0,0.0,99,0.00,,,0.00,meteohub,2013-01-07 06:46:00,
2013-01-06 20:51:00,64.6,64.2,29.35,NE,45,0.0,0.0,99,0.00,,,0.00,meteohub,2013-01-07 06:51:00,
2013-01-06 20:56:00,64.4,64.0,29.35,NE,45,0.0,0.0,99,0.00,,,0.00,meteohub,2013-01-07 06:56:00,
2013-01-06 21:01:00,64.2,63.9,29.35,NE,45,0.0,0.0,99,0.00,,,0.00,meteohub,2013-01-07 07:01:00,
2013-01-06 21:06:00,64.2,63.9,29.36,NE,45,0.0,0.0,99,0.00,,,0.00,meteohub,2013-01-07 07:06:00,
2013-01-06 21:11:00,64.2,63.9,29.36,NE,45,0.0,0.0,99,0.00,,,0.00,meteohub,2013-01-07 07:11:00,
2013-01-06 21:16:00,64.2,63.9,29.36,NE,45,0.0,0.0,99,0.00,,,0.00,meteohub,2013-01-07 07:16:00,
2013-01-06 21:21:00,64.0,63.7,29.36,NE,45,0.0,0.0,99,0.00,,,0.00,meteohub,2013-01-07 07:21:00,
2013-01-06 21:26:00,63.9,63.5,29.36,East,90,0.0,0.0,99,0.00,,,0.00,meteohub,2013-01-07 07:26:00,
2013-01-06 21:31:00,63.7,63.3,29.36,NE,45,0.0,0.0,99,0.00,,,0.00,meteohub,2013-01-07 07:31:00,
2013-01-06 21:36:00,63.7,63.3,29.36,NE,45,0.0,0.0,99,0.00,,,0.00,meteohub,2013-01-07 07:36:00,
2013-01-06 21:41:00,63.3,63.0,29.37,NE,45,0.0,0.0,99,0.00,,,0.00,meteohub,2013-01-07 07:41:00,
2013-01-06 21:46:00,63.1,62.8,29.37,NE,45,0.0,0.0,99,0.00,,,0.00,meteohub,2013-01-07 07:46:00,
2013-01-06 21:51:00,63.0,62.6,29.37,NE,45,0.0,0.0,99,0.00,,,0.00,meteohub,2013-01-07 07:51:00,
2013-01-06 21:56:00,62.8,62.4,29.36,NE,45,0.0,0.0,99,0.00,,,0.00,meteohub,2013-01-07 07:56:00,
2013-01-06 22:01:00,62.8,62.4,29.36,NE,45,0.0,0.0,99,0.00,,,0.00,meteohub,2013-01-07 08:01:00,
2013-01-06 22:06:00,62.8,62.4,29.36,NE,45,0.0,0.0,99,0.00,,,0.00,meteohub,2013-01-07 08:06:00,
2013-01-06 22:11:00,63.0,62.6,29.37,NE,45,0.0,0.0,99,0.00,,,0.00,meteohub,2013-01-07 08:11:00,
2013-01-06 22:16:00,63.0,62.6,29.37,NE,45,0.0,0.0,99,0.00,,,0.00,meteohub,2013-01-07 08:16:00,
2013-01-06 22:21:00,63.0,62.6,29.37,NE,45,0.0,0.0,99,0.00,,,0.00,meteohub,2013-01-07 08:21:00,
2013-01-06 22:26:00,63.0,62.6,29.37,NE,45,0.0,0.0,99,0.00,,,0.00,meteohub,2013-01-07 08:26:00,
2013-01-06 22:31:00,63.1,62.8,29.37,NE,45,0.0,0.0,99,0.00,,,0.00,meteohub,2013-01-07 08:31:00,
2013-01-06 22:36:00,63.1,62.8,29.37,NE,45,0.0,0.0,99,0.00,,,0.00,meteohub,2013-01-07 08:36:00,
2013-01-06 22:41:00,63.3,63.0,29.37,NE,45,0.0,0.0,99,0.00,,,0.00,meteohub,2013-01-07 08:41:00,
2013-01-06 22:46:00,63.5,63.1,29.37,NE,45,0.0,0.0,99,0.00,,,0.00,meteohub,2013-01-07 08:46:00,
2013-01-06 22:51:00,63.7,63.3,29.38,NE,45,0.0,0.0,99,0.00,,,0.00,meteohub,2013-01-07 08:51:00,
2013-01-06 22:56:00,63.5,63.0,29.37,NE,45,2.0,2.0,98,0.00,,,0.00,meteohub,2013-01-07 08:56:00,
2013-01-06 23:01:00,63.5,63.0,29.38,NE,45,1.0,2.0,98,0.00,,,0.00,meteohub,2013-01-07 09:01:00,
2013-01-06 23:06:00,63.3,62.8,29.37,NE,45,1.0,2.0,98,0.00,,,0.00,meteohub,2013-01-07 09:06:00,
2013-01-06 23:11:00,63.1,62.6,29.38,NE,45,0.0,2.0,98,0.00,,,0.00,meteohub,2013-01-07 09:11:00,
2013-01-06 23:17:00,63.0,62.4,29.37,NE,45,0.0,2.0,98,0.00,,,0.00,meteohub,2013-01-07 09:17:00,
2013-01-06 23:22:00,62.8,62.2,29.38,NE,45,0.0,2.0,98,0.00,,,0.00,meteohub,2013-01-07 09:22:00,
2013-01-06 23:27:00,62.8,62.4,29.37,NE,45,0.0,2.0,99,0.00,,,0.00,meteohub,2013-01-07 09:27:00,
2013-01-06 23:32:00,62.8,62.2,29.37,NE,45,2.0,2.0,98,0.00,,,0.00,meteohub,2013-01-07 09:32:00,
2013-01-06 23:37:00,62.6,62.1,29.37,NE,45,0.0,2.0,98,0.00,,,0.00,meteohub,2013-01-07 09:37:00,
2013-01-06 23:42:00,62.2,61.7,29.37,NE,45,0.0,2.0,98,0.00,,,0.00,meteohub,2013-01-07 09:42:00,
2013-01-06 23:47:00,61.9,61.3,29.37,NE,45,0.0,2.0,98,0.00,,,0.00,meteohub,2013-01-07 09:47:00,
2013-01-06 23:52:00,61.7,61.3,29.37,NE,45,0.0,1.0,99,0.00,,,0.00,meteohub,2013-01-07 09:52:00,
2013-01-06 23:57:00,61.5,61.2,29.36,NE,45,0.0,0.0,99,0.00,,,0.00,meteohub,2013-01-07 09:57:00,